Saltar para o conteúdo principal

Flores (Aeródromo)

ID 1200501 · 39.4582, -31.1301 mapa

Última leitura · 2026-05-09 19:00 (Europe/Lisbon)

Temperatura
15.6 °C
Humidade
69 %
Pressão
1,024.2 hPa
Precipitação
0.0 mm
Radiação
589 W/m²
Velocidade do vento
31.3 km/h
Direcção do vento
NW · Noroeste

Histórico de 24 horas

Hora (Europe/Lisbon) Temperatura Humidade Pressão Chuva Vento Direcção
2026-05-09 19:00 15.6 °C 69 % 1,024.2 0.0 mm 31.3 km/h NW
2026-05-09 18:00 15.7 °C 64 % 1,024.2 0.0 mm 31.3 km/h N
2026-05-09 17:00 15.9 °C 58 % 1,024.4 0.0 mm 26.3 km/h N
2026-05-09 16:00 15.7 °C 59 % 1,024.5 0.0 mm 23.0 km/h
2026-05-09 15:00 15.5 °C 58 % 1,024.5 0.0 mm 27.4 km/h N
2026-05-09 14:00 15.5 °C 52 % 1,024.6 0.0 mm 24.5 km/h N
2026-05-09 13:00 15.0 °C 52 % 1,024.4 0.0 mm 24.8 km/h N
2026-05-09 12:00 14.6 °C 54 % 1,024.2 0.0 mm 30.6 km/h N
2026-05-09 11:00 13.5 °C 66 % 1,024.2 0.0 mm 27.0 km/h N
2026-05-09 10:00 13.9 °C 65 % 1,023.8 0.0 mm 29.2 km/h N
2026-05-09 09:00 13.7 °C 64 % 1,023.2 0.0 mm 24.1 km/h
2026-05-09 08:00 13.8 °C 65 % 1,022.6 0.0 mm 31.3 km/h N
2026-05-09 07:00 13.7 °C 64 % 1,022.6 0.0 mm 27.4 km/h N
2026-05-09 06:00 13.7 °C 58 % 1,022.8 0.0 mm 23.8 km/h N
2026-05-09 05:00 13.6 °C 61 % 1,023.0 0.0 mm 25.9 km/h N
2026-05-09 04:00 13.9 °C 65 % 1,023.2 0.0 mm 22.3 km/h N
2026-05-09 03:00 14.2 °C 72 % 1,023.2 0.0 mm 23.4 km/h N
2026-05-09 02:00 14.5 °C 70 % 1,023.4 0.0 mm 21.6 km/h N
2026-05-09 01:00 14.7 °C 71 % 1,023.5 0.0 mm 19.4 km/h N
2026-05-09 00:00 14.8 °C 72 % 1,023.2 0.0 mm 24.5 km/h N
2026-05-08 23:00 14.8 °C 75 % 1,022.5 0.0 mm 27.4 km/h N
2026-05-08 22:00 14.4 °C 78 % 1,022.2 0.0 mm 22.3 km/h NW
2026-05-08 21:00 15.3 °C 74 % 1,021.8 0.0 mm 28.1 km/h N
2026-05-08 20:00 16.0 °C 72 % 1,021.5 0.0 mm 31.7 km/h N